Time,TemperatureF,DewpointF,PressureIn,WindDirection,WindDirectionDegrees,WindSpeedMPH,WindSpeedGustMPH,Humidity,HourlyPrecipIn,Conditions,Clouds,dailyrainin,SoftwareType,DateUTC
2013-05-30 00:03:00,58.8,46.3,29.87,West,270,3.1,6.9,63,0.00,,,0.00,pywws,2013-05-29 23:03:00,
2013-05-30 00:13:00,58.6,46.1,29.87,NW,315,2.2,5.4,63,0.00,,,0.00,pywws,2013-05-29 23:13:00,
2013-05-30 00:23:00,58.6,45.7,29.87,NW,315,5.4,9.8,62,0.00,,,0.00,pywws,2013-05-29 23:23:00,
2013-05-30 00:33:00,58.6,45.2,29.87,West,270,3.1,6.0,61,0.00,,,0.00,pywws,2013-05-29 23:33:00,
2013-05-30 00:43:00,58.6,45.2,29.87,WSW,248,2.2,4.5,61,0.00,,,0.00,pywws,2013-05-29 23:43:00,
2013-05-30 00:53:00,58.5,44.6,29.86,NW,315,4.5,8.3,60,0.00,,,0.00,pywws,2013-05-29 23:53:00,
2013-05-30 01:03:00,58.5,44.6,29.85,WSW,248,3.8,6.9,60,0.00,,,0.00,pywws,2013-05-30 00:03:00,
2013-05-30 01:13:00,58.5,44.6,29.86,NW,315,3.1,8.3,60,0.00,,,0.00,pywws,2013-05-30 00:13:00,
2013-05-30 01:23:00,58.5,44.2,29.86,West,270,4.5,10.7,59,0.00,,,0.00,pywws,2013-05-30 00:23:00,
2013-05-30 01:33:00,58.5,44.2,29.86,WSW,248,5.4,8.3,59,0.00,,,0.00,pywws,2013-05-30 00:33:00,
2013-05-30 01:43:00,58.5,43.7,29.86,WSW,248,3.8,6.9,58,0.00,,,0.00,pywws,2013-05-30 00:43:00,
2013-05-30 01:53:00,58.3,43.1,29.86,NNE,22,3.1,6.0,57,0.00,,,0.00,pywws,2013-05-30 00:53:00,
2013-05-30 02:03:00,58.1,42.9,29.85,West,270,2.2,3.8,57,0.00,,,0.00,pywws,2013-05-30 01:03:00,
2013-05-30 02:13:00,57.9,42.8,29.85,WSW,248,3.1,6.9,57,0.00,,,0.00,pywws,2013-05-30 01:13:00,
2013-05-30 02:23:00,57.4,42.7,29.86,NW,315,1.6,4.5,58,0.00,,,0.00,pywws,2013-05-30 01:23:00,
2013-05-30 02:33:00,57.2,42.6,29.86,West,270,0.0,2.2,58,0.00,,,0.00,pywws,2013-05-30 01:33:00,
2013-05-30 02:43:00,56.8,42.2,29.86,WSW,248,1.6,4.5,58,0.00,,,0.00,pywws,2013-05-30 01:43:00,
2013-05-30 02:53:00,56.7,41.6,29.85,WSW,248,3.1,5.4,57,0.00,,,0.00,pywws,2013-05-30 01:53:00,
2013-05-30 03:03:00,56.8,41.8,29.85,NW,315,2.2,3.8,57,0.00,,,0.00,pywws,2013-05-30 02:03:00,
2013-05-30 03:13:00,56.8,41.8,29.85,West,270,3.1,5.4,57,0.00,,,0.00,pywws,2013-05-30 02:13:00,
2013-05-30 03:23:00,57.0,41.5,29.85,NW,315,3.1,5.4,56,0.00,,,0.00,pywws,2013-05-30 02:23:00,
2013-05-30 03:33:00,57.2,41.6,29.85,West,270,3.8,6.9,56,0.00,,,0.00,pywws,2013-05-30 02:33:00,
2013-05-30 03:43:00,57.6,41.5,29.84,NE,45,3.8,6.9,55,0.00,,,0.00,pywws,2013-05-30 02:43:00,
2013-05-30 03:53:00,57.6,41.5,29.84,WSW,248,0.7,2.2,55,0.00,,,0.00,pywws,2013-05-30 02:53:00,
2013-05-30 04:03:00,57.4,41.3,29.85,North,0,3.1,7.6,55,0.00,,,0.00,pywws,2013-05-30 03:03:00,
2013-05-30 04:13:00,57.2,41.2,29.85,WSW,248,3.1,6.0,55,0.00,,,0.00,pywws,2013-05-30 03:13:00,
2013-05-30 04:23:00,57.2,41.6,29.85,NW,315,0.7,2.2,56,0.00,,,0.00,pywws,2013-05-30 03:23:00,
2013-05-30 04:33:00,57.2,41.6,29.85,NW,315,2.2,4.5,56,0.00,,,0.00,pywws,2013-05-30 03:33:00,
2013-05-30 04:43:00,56.8,41.8,29.85,WNW,292,3.1,6.0,57,0.00,,,0.00,pywws,2013-05-30 03:43:00,
2013-05-30 04:53:00,56.7,41.6,29.85,WSW,248,1.6,3.8,57,0.00,,,0.00,pywws,2013-05-30 03:53:00,
2013-05-30 05:03:00,56.5,41.9,29.86,WSW,248,3.1,7.6,58,0.00,,,0.00,pywws,2013-05-30 04:03:00,
2013-05-30 05:13:00,56.3,41.7,29.86,NW,315,2.2,4.5,58,0.00,,,0.00,pywws,2013-05-30 04:13:00,
2013-05-30 05:23:00,56.3,41.7,29.86,West,270,0.7,3.1,58,0.00,,,0.00,pywws,2013-05-30 04:23:00,
2013-05-30 05:33:00,56.3,42.2,29.87,WSW,248,3.1,6.9,59,0.00,,,0.00,pywws,2013-05-30 04:33:00,
2013-05-30 05:43:00,56.7,42.5,29.88,WNW,292,1.6,5.4,59,0.00,,,0.00,pywws,2013-05-30 04:43:00,
2013-05-30 05:54:00,56.8,43.1,29.89,SE,135,0.0,1.6,60,0.00,,,0.00,pywws,2013-05-30 04:54:00,
2013-05-30 06:03:00,56.8,43.1,29.89,East,90,0.0,0.0,60,0.00,,,0.00,pywws,2013-05-30 05:03:00,
2013-05-30 06:13:00,56.8,44.0,29.89,SE,135,0.0,0.0,62,0.00,,,0.00,pywws,2013-05-30 05:13:00,
2013-05-30 06:23:00,56.7,43.8,29.89,WSW,248,0.0,0.0,62,0.00,,,0.00,pywws,2013-05-30 05:23:00,
2013-05-30 06:33:00,56.7,44.2,29.89,South,180,0.7,2.2,63,0.00,,,0.00,pywws,2013-05-30 05:33:00,
2013-05-30 06:43:00,56.7,44.2,29.89,NW,315,0.7,3.1,63,0.00,,,0.00,pywws,2013-05-30 05:43:00,
2013-05-30 06:53:00,57.0,44.5,29.89,NW,315,0.0,1.6,63,0.00,,,0.00,pywws,2013-05-30 05:53:00,
2013-05-30 07:03:00,57.0,44.5,29.90,South,180,2.2,4.5,63,0.00,,,0.00,pywws,2013-05-30 06:03:00,
2013-05-30 07:13:00,57.6,44.6,29.90,WSW,248,1.6,5.4,62,0.00,,,0.00,pywws,2013-05-30 06:13:00,
2013-05-30 07:23:00,57.9,44.6,29.90,SE,135,1.6,3.1,61,0.00,,,0.00,pywws,2013-05-30 06:23:00,
2013-05-30 07:33:00,58.5,44.6,29.90,ESE,112,1.6,3.1,60,0.00,,,0.00,pywws,2013-05-30 06:33:00,
2013-05-30 07:43:00,59.0,44.7,29.90,SE,135,1.6,5.4,59,0.00,,,0.00,pywws,2013-05-30 06:43:00,
2013-05-30 07:53:00,59.4,45.0,29.90,North,0,4.5,10.7,59,0.00,,,0.00,pywws,2013-05-30 06:53:00,
2013-05-30 08:03:00,59.5,44.7,29.91,NW,315,4.5,9.8,58,0.00,,,0.00,pywws,2013-05-30 07:03:00,
2013-05-30 08:13:00,59.5,44.7,29.91,SE,135,3.8,11.4,58,0.00,,,0.00,pywws,2013-05-30 07:13:00,
2013-05-30 08:23:00,59.7,44.9,29.91,SE,135,2.2,6.9,58,0.00,,,0.00,pywws,2013-05-30 07:23:00,
2013-05-30 08:33:00,59.5,44.7,29.91,West,270,3.1,9.8,58,0.00,,,0.00,pywws,2013-05-30 07:33:00,
2013-05-30 08:43:00,59.7,44.9,29.91,NW,315,3.8,10.7,58,0.00,,,0.00,pywws,2013-05-30 07:43:00,
2013-05-30 08:53:00,59.7,44.9,29.92,North,0,0.7,4.5,58,0.00,,,0.00,pywws,2013-05-30 07:53:00,
2013-05-30 09:03:00,60.1,45.3,29.92,NW,315,2.2,5.4,58,0.00,,,0.00,pywws,2013-05-30 08:03:00,
2013-05-30 09:13:00,60.3,45.9,29.93,South,180,0.7,3.1,59,0.00,,,0.00,pywws,2013-05-30 08:13:00,
2013-05-30 09:23:00,60.1,47.0,29.92,North,0,0.7,4.5,62,0.00,,,0.00,pywws,2013-05-30 08:23:00,
2013-05-30 09:33:00,59.7,47.1,29.93,North,0,0.0,1.6,63,0.00,,,0.00,pywws,2013-05-30 08:33:00,
2013-05-30 09:43:00,59.5,47.8,29.93,NW,315,0.7,2.2,65,0.00,,,0.00,pywws,2013-05-30 08:43:00,
2013-05-30 09:53:00,59.7,47.9,29.93,North,0,0.7,4.5,65,0.00,,,0.00,pywws,2013-05-30 08:53:00,
2013-05-30 10:03:00,59.9,48.1,29.93,West,270,3.1,5.4,65,0.00,,,0.00,pywws,2013-05-30 09:03:00,
2013-05-30 10:13:00,59.9,48.1,29.94,NW,315,0.0,2.2,65,0.00,,,0.00,pywws,2013-05-30 09:13:00,
2013-05-30 10:23:00,60.4,48.2,29.94,NW,315,0.7,3.1,64,0.00,,,0.00,pywws,2013-05-30 09:23:00,
2013-05-30 10:33:00,60.8,48.1,29.94,North,0,0.0,1.6,63,0.00,,,0.00,pywws,2013-05-30 09:33:00,
2013-05-30 10:43:00,61.2,48.5,29.95,NW,315,0.7,3.8,63,0.00,,,0.00,pywws,2013-05-30 09:43:00,
2013-05-30 10:53:00,61.3,48.2,29.95,SE,135,0.7,3.1,62,0.00,,,0.00,pywws,2013-05-30 09:53:00,
2013-05-30 11:03:00,61.7,48.5,29.96,WSW,248,1.6,3.8,62,0.00,,,0.00,pywws,2013-05-30 10:03:00,
2013-05-30 11:13:00,61.7,48.5,29.96,NW,315,0.0,0.7,62,0.00,,,0.00,pywws,2013-05-30 10:13:00,
2013-05-30 11:23:00,62.2,48.6,29.96,NE,45,2.2,3.8,61,0.00,,,0.00,pywws,2013-05-30 10:23:00,
2013-05-30 11:33:00,62.4,48.8,29.96,SE,135,1.6,2.2,61,0.00,,,0.00,pywws,2013-05-30 10:33:00,
2013-05-30 11:43:00,62.8,48.7,29.97,SE,135,5.4,8.3,60,0.00,,,0.00,pywws,2013-05-30 10:43:00,
2013-05-30 11:53:00,61.7,47.7,29.97,SE,135,3.8,6.0,60,0.00,,,0.00,pywws,2013-05-30 10:53:00,
2013-05-30 12:03:00,61.3,48.2,29.97,East,90,3.8,6.0,62,0.00,,,0.00,pywws,2013-05-30 11:03:00,
2013-05-30 12:13:00,61.5,48.4,29.98,East,90,3.1,6.0,62,0.00,,,0.00,pywws,2013-05-30 11:13:00,
2013-05-30 12:23:00,61.3,47.8,29.98,SE,135,4.5,6.0,61,0.00,,,0.00,pywws,2013-05-30 11:23:00,
2013-05-30 12:33:00,60.8,47.3,29.98,SE,135,3.1,5.4,61,0.00,,,0.00,pywws,2013-05-30 11:33:00,
2013-05-30 12:43:00,60.3,47.2,29.98,East,90,3.1,4.5,62,0.00,,,0.00,pywws,2013-05-30 11:43:00,
2013-05-30 12:53:00,60.4,47.8,29.99,East,90,6.0,9.2,63,0.00,,,0.00,pywws,2013-05-30 11:53:00,
2013-05-30 13:03:00,60.1,47.4,29.99,East,90,5.4,8.3,63,0.00,,,0.00,pywws,2013-05-30 12:03:00,
2013-05-30 13:13:00,59.7,47.1,30.00,East,90,3.8,6.0,63,0.00,,,0.00,pywws,2013-05-30 12:13:00,
2013-05-30 13:23:00,58.8,46.7,30.00,SE,135,3.1,5.4,64,0.00,,,0.00,pywws,2013-05-30 12:23:00,
2013-05-30 13:33:00,58.6,46.9,30.01,SE,135,3.8,5.4,65,0.00,,,0.00,pywws,2013-05-30 12:33:00,
2013-05-30 13:43:00,58.8,47.5,30.01,East,90,2.2,4.5,66,0.00,,,0.00,pywws,2013-05-30 12:43:00,
2013-05-30 13:53:00,59.4,48.4,30.01,SE,135,3.8,6.9,67,0.00,,,0.00,pywws,2013-05-30 12:53:00,
2013-05-30 14:03:00,59.9,48.5,30.01,SE,135,3.8,6.9,66,0.00,,,0.00,pywws,2013-05-30 13:03:00,
2013-05-30 14:13:00,60.3,48.9,30.02,SE,135,3.1,6.0,66,0.00,,,0.00,pywws,2013-05-30 13:13:00,
2013-05-30 14:23:00,60.8,49.8,30.01,NE,45,2.2,3.8,67,0.00,,,0.00,pywws,2013-05-30 13:23:00,
2013-05-30 14:33:00,61.5,50.5,30.01,SE,135,3.1,4.5,67,0.00,,,0.00,pywws,2013-05-30 13:33:00,
2013-05-30 14:43:00,62.8,51.2,30.01,East,90,2.2,3.8,66,0.00,,,0.00,pywws,2013-05-30 13:43:00,
2013-05-30 14:53:00,63.7,51.7,30.01,East,90,2.2,3.8,65,0.00,,,0.00,pywws,2013-05-30 13:53:00,
2013-05-30 15:03:00,64.4,52.0,30.01,SE,135,3.1,4.5,64,0.00,,,0.00,pywws,2013-05-30 14:03:00,
2013-05-30 15:13:00,64.6,51.7,30.01,SE,135,3.8,6.0,63,0.00,,,0.00,pywws,2013-05-30 14:13:00,
2013-05-30 15:23:00,64.8,51.4,30.02,SE,135,3.8,6.9,62,0.00,,,0.00,pywws,2013-05-30 14:23:00,
2013-05-30 15:33:00,64.6,50.8,30.02,ESE,112,4.5,6.9,61,0.00,,,0.00,pywws,2013-05-30 14:33:00,
2013-05-30 15:43:00,64.2,50.9,30.02,East,90,4.5,6.9,62,0.00,,,0.00,pywws,2013-05-30 14:43:00,
2013-05-30 15:54:00,64.2,50.9,30.02,SE,135,1.6,3.8,62,0.00,,,0.00,pywws,2013-05-30 14:54:00,
2013-05-30 16:03:00,64.6,51.3,30.02,East,90,4.5,6.0,62,0.00,,,0.00,pywws,2013-05-30 15:03:00,
2013-05-30 16:13:00,64.9,51.2,30.02,SE,135,3.1,4.5,61,0.00,,,0.00,pywws,2013-05-30 15:13:00,
2013-05-30 16:23:00,64.6,50.4,30.02,SE,135,3.8,5.4,60,0.00,,,0.00,pywws,2013-05-30 15:23:00,
2013-05-30 16:33:00,64.2,50.5,30.02,NE,45,1.6,3.8,61,0.00,,,0.00,pywws,2013-05-30 15:33:00,
2013-05-30 16:43:00,63.9,50.1,30.02,South,180,3.1,6.0,61,0.00,,,0.00,pywws,2013-05-30 15:43:00,
2013-05-30 16:53:00,63.7,50.4,30.01,East,90,3.1,6.9,62,0.00,,,0.00,pywws,2013-05-30 15:53:00,
2013-05-30 17:03:00,63.3,50.1,30.02,East,90,2.2,5.4,62,0.00,,,0.00,pywws,2013-05-30 16:03:00,
2013-05-30 17:13:00,63.1,49.9,30.02,SE,135,3.1,4.5,62,0.00,,,0.00,pywws,2013-05-30 16:13:00,
2013-05-30 17:23:00,63.3,50.1,30.01,East,90,3.1,4.5,62,0.00,,,0.00,pywws,2013-05-30 16:23:00,
2013-05-30 17:33:00,63.5,50.2,30.01,South,180,3.1,4.5,62,0.00,,,0.00,pywws,2013-05-30 16:33:00,
2013-05-30 17:43:00,63.7,50.4,30.02,East,90,1.6,2.2,62,0.00,,,0.00,pywws,2013-05-30 16:43:00,
2013-05-30 17:53:00,64.0,50.8,30.01,East,90,2.2,3.8,62,0.00,,,0.00,pywws,2013-05-30 16:53:00,
2013-05-30 18:03:00,64.4,50.7,30.02,SE,135,2.2,3.1,61,0.00,,,0.00,pywws,2013-05-30 17:03:00,
2013-05-30 18:13:00,64.6,50.4,30.02,East,90,2.2,3.8,60,0.00,,,0.00,pywws,2013-05-30 17:13:00,
2013-05-30 18:23:00,64.6,50.4,30.01,SE,135,3.8,5.4,60,0.00,,,0.00,pywws,2013-05-30 17:23:00,
2013-05-30 18:33:00,64.4,49.8,30.03,East,90,3.1,4.5,59,0.00,,,0.00,pywws,2013-05-30 17:33:00,
2013-05-30 18:43:00,64.2,49.6,30.03,SE,135,3.1,4.5,59,0.00,,,0.00,pywws,2013-05-30 17:43:00,
2013-05-30 18:53:00,63.5,48.9,30.03,East,90,3.1,5.4,59,0.00,,,0.00,pywws,2013-05-30 17:53:00,
2013-05-30 19:03:00,62.8,48.2,30.03,East,90,3.1,4.5,59,0.00,,,0.00,pywws,2013-05-30 18:03:00,
2013-05-30 19:13:00,62.4,48.3,30.03,East,90,3.1,5.4,60,0.00,,,0.00,pywws,2013-05-30 18:13:00,
2013-05-30 19:23:00,61.3,47.8,30.03,East,90,2.2,4.5,61,0.00,,,0.00,pywws,2013-05-30 18:23:00,
2013-05-30 19:33:00,60.8,47.7,30.03,East,90,3.1,4.5,62,0.00,,,0.00,pywws,2013-05-30 18:33:00,
2013-05-30 19:43:00,60.1,47.4,30.03,SE,135,2.2,4.5,63,0.00,,,0.00,pywws,2013-05-30 18:43:00,
2013-05-30 19:53:00,59.5,47.3,30.03,SE,135,1.6,3.1,64,0.00,,,0.00,pywws,2013-05-30 18:53:00,
2013-05-30 20:03:00,59.2,47.4,30.03,East,90,2.2,3.8,65,0.00,,,0.00,pywws,2013-05-30 19:03:00,
2013-05-30 20:13:00,59.2,47.8,30.03,East,90,2.2,4.5,66,0.00,,,0.00,pywws,2013-05-30 19:13:00,
2013-05-30 20:23:00,59.0,47.7,30.04,NE,45,3.1,5.4,66,0.00,,,0.00,pywws,2013-05-30 19:23:00,
2013-05-30 20:33:00,58.5,47.1,30.04,East,90,4.5,6.9,66,0.00,,,0.00,pywws,2013-05-30 19:33:00,
2013-05-30 20:43:00,57.7,46.5,30.04,NE,45,3.1,4.5,66,0.00,,,0.00,pywws,2013-05-30 19:43:00,
2013-05-30 20:53:00,57.0,46.2,30.04,East,90,3.1,4.5,67,0.00,,,0.00,pywws,2013-05-30 19:53:00,
2013-05-30 21:03:00,56.1,45.7,30.04,East,90,1.6,3.1,68,0.00,,,0.00,pywws,2013-05-30 20:03:00,
2013-05-30 21:13:00,55.9,45.5,30.05,East,90,2.2,3.8,68,0.00,,,0.00,pywws,2013-05-30 20:13:00,
2013-05-30 21:23:00,55.4,45.4,30.05,East,90,2.2,3.8,69,0.00,,,0.00,pywws,2013-05-30 20:23:00,
2013-05-30 21:33:00,55.0,45.4,30.05,SE,135,0.0,0.0,70,0.00,,,0.00,pywws,2013-05-30 20:33:00,
2013-05-30 21:43:00,54.7,45.1,30.05,East,90,0.0,0.0,70,0.00,,,0.00,pywws,2013-05-30 20:43:00,
2013-05-30 21:53:00,54.3,45.1,30.05,East,90,0.0,1.6,71,0.00,,,0.00,pywws,2013-05-30 20:53:00,
2013-05-30 22:03:00,53.8,44.6,30.05,SE,135,0.0,0.0,71,0.00,,,0.00,pywws,2013-05-30 21:03:00,
2013-05-30 22:13:00,53.8,45.0,30.05,NE,45,0.0,0.7,72,0.00,,,0.00,pywws,2013-05-30 21:13:00,
2013-05-30 22:23:00,53.4,44.6,30.04,NE,45,0.7,2.2,72,0.00,,,0.00,pywws,2013-05-30 21:23:00,
2013-05-30 22:34:00,53.4,45.0,30.05,North,-999,0.0,0.0,73,0.00,,,0.00,pywws,2013-05-30 21:34:00,
2013-05-30 22:43:00,53.1,45.0,30.06,WSW,248,0.0,0.0,74,0.00,,,0.00,pywws,2013-05-30 21:43:00,
2013-05-30 22:53:00,52.7,44.6,30.06,West,270,1.6,3.1,74,0.00,,,0.00,pywws,2013-05-30 21:53:00,
2013-05-30 23:03:00,52.3,44.3,30.06,WSW,248,0.0,0.0,74,0.00,,,0.00,pywws,2013-05-30 22:03:00,
2013-05-30 23:13:00,52.2,44.1,30.06,East,90,0.0,0.0,74,0.00,,,0.00,pywws,2013-05-30 22:13:00,
2013-05-30 23:23:00,51.6,44.0,30.06,WSW,248,0.0,0.0,75,0.00,,,0.00,pywws,2013-05-30 22:23:00,
2013-05-30 23:33:00,51.3,43.6,30.06,WSW,248,0.0,0.0,75,0.00,,,0.00,pywws,2013-05-30 22:33:00,
2013-05-30 23:43:00,51.1,43.8,30.06,WSW,248,0.0,0.0,76,0.00,,,0.00,pywws,2013-05-30 22:43:00,
2013-05-30 23:53:00,50.9,43.6,30.05,WSW,248,0.0,0.0,76,0.00,,,0.00,pywws,2013-05-30 22:53:00,